{"data":{"norad_id":62450,"epoch":"2026-05-24T19:14:23.123328Z","epoch_age_seconds":92212,"freshness":"FRESH","line1":"1 62450U 24251U   26144.80165652  .00012924  00000+0  44763-3 0  9995","line2":"2 62450  53.1634 341.6123 0000639 127.4306 232.6753 15.30206141 79234","mean_motion":15.30206141,"eccentricity":6.39e-5,"inclination_deg":53.1634,"raan_deg":341.6123,"arg_perigee_deg":127.4306,"mean_anomaly_deg":232.6753,"bstar":0.00044763,"rev_number":7923,"period_min":94.104968044302,"perigee_km":474.75880553599,"apogee_km":475.63466158714,"semimajor_km":6853.3337335616,"source":"CELESTRAK","updated_at":"2026-05-25T13:38:19.687088Z"}}